Accueil
METAR-TAF:

METAR-TAF

Aéroports :

Kayseri, Turquie

latitude: 38-47N, longitude: 035-29E, altitude: 1053 m

Observation

Le bulletin a été fait il y a 32 minutes, à 22:20 UTC
Vent 5 kt de nord-est
Température -8°C
Humidité 79%
Pression 1027 hPa
Visibilité 10 km ou plus
pas de nuages en-dessous de 1500 mètres et pas de cumulonimbus.

METAR: LTAU 252220Z 05005KT CAVOK M08/M11 Q1027 NOSIG RMK RWY07 05004KT

Heure: 01:52 (22:52 UTC)

Prévision

Le bulletin a été fait il y a 6 heures et 12 minutes, à 16:40 UTC
Prévision valable du 25 à 18 UTC au 26 à 18 UTC
Vent 2 kt de direction variable
Visibilité: 8000 m

TAF: LTAU 251640Z 2518/2618 VRB02KT 8000 NSC

Observations et prévisions météorologiques de plus de 4000 aéroports (messages METAR et TAF).

Les stations disponibles sont représentées par des disques jaunes et rouges sur la carte.

Passer la souris dessus pour voir le nom de la station.

Cliquer dessus pour voir les observations et prévisions météorologiques.

Pour changer de carte: cliquez sur les boutons verts avec une croix noire pour zoomer, sur le bouton vert avec un tiret pour effectuer un zoom arrière, ou sur les flèches vertes pour les cartes adjacentes.


METAR-TAF: